GW2236 Weather Reports


time (UTC)temp
F
wind
direction
speed
knots
gust
knots
rain 1hr
in
rain 24hr
in
rain mn
in
humidity
%
barometer
mb
20260906234240 95 131 1.7 1.7 0.00 0.00 0.00 20 1016.2
20260906233738 95 142 4.3 5.2 0.00 0.00 0.00 20 1016.3
20260906233232 95 151 2.6 2.6 0.00 0.00 0.00 20 1016.6
20260906232727 95 127 0.9 1.7 0.00 0.00 0.00 21 1016.7
20260906232222 96 171 3.5 5.2 0.00 0.00 0.00 21 1016.4
20260906231716 96 138 2.6 5.2 0.00 0.00 0.00 20 1016.6
20260906231212 96 153 1.7 1.7 0.00 0.00 0.00 20 1016.7
20260906230711 96 19 0.9 0.9 0.00 0.00 0.00 20 1016.3
20260906230206 97 136 0.0 0.9 0.00 0.00 0.00 19 1016.8
20260906225705 95 153 0.9 1.7 0.00 0.00 0.00 20 1016.6
20260906225201 97 141 0.9 1.7 0.00 0.00 0.00 21 1016.7
20260906224656 96 159 0.9 0.9 0.00 0.00 0.00 20 1016.4
20260906224152 97 121 1.7 1.7 0.00 0.00 0.00 19 1016.3
20260906223649 96 258 1.7 1.7 0.00 0.00 0.00 20 1016.4
20260906223143 97 113 6.1 7.0 0.00 0.00 0.00 19 1016.4
20260906222641 99 297 0.9 0.9 0.00 0.00 0.00 20 1016.7
20260906222140 97 185 3.5 4.3 0.00 0.00 0.00 18 1016.9
20260906221638 99 131 0.9 1.7 0.00 0.00 0.00 18 1016.7
20260906221133 97 42 0.0 0.9 0.00 0.00 0.00 20 1017.0
20260906220628 95 345 1.7 2.6 0.00 0.00 0.00 19 1016.9
20260906220124 97 263 3.5 5.2 0.00 0.00 0.00 18 1017.1
20260906215622 97 355 1.7 2.6 0.00 0.00 0.00 19 1017.0
20260906215121 97 273 4.3 7.8 0.00 0.00 0.00 18 1017.1
20260906214620 98 262 2.6 2.6 0.00 0.00 0.00 18 1017.3
20260906214115 98 264 0.9 1.7 0.00 0.00 0.00 19 1017.4
20260906213614 97 54 0.9 0.9 0.00 0.00 0.00 19 1017.5
20260906213108 96 9 0.9 0.9 0.00 0.00 0.00 18 1017.7
20260906212601 97 170 3.5 5.2 0.00 0.00 0.00 18 1017.7
20260906212057 97 167 0.9 1.7 0.00 0.00 0.00 19 1017.7
20260906211556 98 136 1.7 2.6 0.00 0.00 0.00 18 1018.0
20260906211051 96 343 0.9 1.7 0.00 0.00 0.00 17 1018.1
20260906210547 96 254 2.6 2.6 0.00 0.00 0.00 19 1018.0
20260906210042 96 352 3.5 4.3 0.00 0.00 0.00 18 1018.2
20260906205537 97 263 2.6 2.6 0.00 0.00 0.00 17 1018.2
20260906205034 95 1 0.9 0.9 0.00 0.00 0.00 17 1018.3
20260906204532 94 74 1.7 2.6 0.00 0.00 0.00 18 1018.3
20260906204026 96 119 2.6 4.3 0.00 0.00 0.00 17 1018.2
20260906203521 95 43 0.0 0.9 0.00 0.00 0.00 18 1018.3
20260906203016 94 134 0.9 0.9 0.00 0.00 0.00 18 1018.7
20260906202512 94 273 0.9 0.9 0.00 0.00 0.00 19 1018.9
20260906202007 95 178 0.9 0.9 0.00 0.00 0.00 19 1018.8
20260906201502 95 209 2.6 2.6 0.00 0.00 0.00 17 1018.8
20260906200956 95 246 2.6 4.3 0.00 0.00 0.00 18 1018.9
20260906200453 94 263 1.7 2.6 0.00 0.00 0.00 19 1019.3
20260906195952 93 75 0.9 1.7 0.00 0.00 0.00 21 1018.9
20260906195448 93 342 3.5 4.3 0.00 0.00 0.00 19 1018.9
20260906194944 94 340 1.7 2.6 0.00 0.00 0.00 18 1019.0
20260906194440 93 23 2.6 2.6 0.00 0.00 0.00 19 1019.1
20260906193935 94 12 1.7 2.6 0.00 0.00 0.00 18 1019.0
20260906193430 93 139 0.0 0.0 0.00 0.00 0.00 21 1019.1
20260906192926 93 130 0.0 0.9 0.00 0.00 0.00 20 1019.3
20260906192420 93 65 1.7 1.7 0.00 0.00 0.00 18 1019.1
20260906191919 93 36 4.3 6.1 0.00 0.00 0.00 19 1019.5
20260906191415 96 46 1.7 1.7 0.00 0.00 0.00 18 1019.4
20260906190914 93 93 0.9 1.7 0.00 0.00 0.00 21 1019.6
20260906190413 92 146 0.0 0.9 0.00 0.00 0.00 20 1019.6
20260906185908 91 38 0.9 0.9 0.00 0.00 0.00 21 1019.6
20260906185407 92 135 0.0 0.9 0.00 0.00 0.00 20 1019.8
20260906184906 94 268 0.9 0.9 0.00 0.00 0.00 20 1020.2
20260906184401 93 271 0.9 1.7 0.00 0.00 0.00 20 1020.1
20260906183857 91 58 0.9 0.9 0.00 0.00 0.00 21 1020.3
20260906183353 93 110 2.6 2.6 0.00 0.00 0.00 19 1020.3
20260906182848 92 294 0.9 0.9 0.00 0.00 0.00 21 1020.3
20260906182343 91 61 0.9 1.7 0.00 0.00 0.00 19 1020.9
20260906181838 90 72 1.7 2.6 0.00 0.00 0.00 21 1020.4
20260906181334 90 57 2.6 2.6 0.00 0.00 0.00 23 1020.5
20260906180829 90 27 0.9 1.7 0.00 0.00 0.00 23 1020.8
20260906180324 91 113 2.6 4.3 0.00 0.00 0.00 24 1020.9
20260906175821 90 147 1.7 1.7 0.00 0.00 0.00 25 1021.0
20260906175317 90 357 4.3 6.1 0.00 0.00 0.00 24 1020.8
20260906174816 90 62 0.9 1.7 0.00 0.00 0.00 25 1021.1
20260906174316 89 109 0.0 0.9 0.00 0.00 0.00 26 1020.8
20260906173810 89 69 1.7 2.6 0.00 0.00 0.00 26 1021.1
20260906173306 89 54 0.0 0.9 0.00 0.00 0.00 27 1021.1
20260906172805 89 7 1.7 1.7 0.00 0.00 0.00 26 1021.4
20260906172305 87 75 0.0 0.0 0.00 0.00 0.00 29 1021.1
20260906171756 86 93 0.9 0.9 0.00 0.00 0.00 28 1021.4
20260906171251 86 65 0.0 0.9 0.00 0.00 0.00 30 1021.5
20260906170747 86 67 2.6 5.2 0.00 0.00 0.00 27 1021.6
20260906170243 86 2 2.6 2.6 0.00 0.00 0.00 28 1021.5
20260906165738 86 47 1.7 1.7 0.00 0.00 0.00 30 1021.2
20260906165238 86 39 0.9 2.6 0.00 0.00 0.00 28 1021.8
20260906164738 84 30 2.6 4.3 0.00 0.00 0.00 29 1021.6
20260906164233 84 320 2.6 2.6 0.00 0.00 0.00 29 1021.8
20260906163729 83 11 1.7 1.7 0.00 0.00 0.00 29 1021.7
20260906163225 83 48 0.9 0.9 0.00 0.00 0.00 30 1021.6
20260906162721 83 75 3.5 4.3 0.00 0.00 0.00 30 1021.8
20260906162216 82 70 2.6 4.3 0.00 0.00 0.00 30 1021.7
20260906161711 81 48 1.7 1.7 0.00 0.00 0.00 31 1021.7
20260906161210 81 21 3.5 5.2 0.00 0.00 0.00 31 1021.8
20260906160709 80 332 2.6 2.6 0.00 0.00 0.00 32 1021.7
20260906160209 80 38 2.6 2.6 0.00 0.00 0.00 32 1021.8
20260906155706 79 21 2.6 4.3 0.00 0.00 0.00 32 1021.6
20260906155202 80 24 0.9 0.9 0.00 0.00 0.00 33 1021.7
20260906154657 80 83 0.9 1.7 0.00 0.00 0.00 33 1021.8
20260906154156 79 335 2.6 2.6 0.00 0.00 0.00 32 1021.6
20260906153655 79 354 4.3 5.2 0.00 0.00 0.00 32 1021.7
20260906153150 79 42 3.5 4.3 0.00 0.00 0.00 32 1021.7
20260906152645 78 346 3.5 4.3 0.00 0.00 0.00 32 1021.7
20260906152139 78 294 4.3 5.2 0.00 0.00 0.00 32 1021.6
20260906151634 78 42 0.9 1.7 0.00 0.00 0.00 33 1021.6
20260906151130 77 24 1.7 1.7 0.00 0.00 0.00 33 1021.6
20260906150625 77 36 0.0 0.0 0.00 0.00 0.00 36 1021.7
20260906150120 76 66 0.0 0.9 0.00 0.00 0.00 33 1021.8
20260906145619 76 93 0.0 0.0 0.00 0.00 0.00 34 1021.9
20260906145114 77 70 0.9 0.9 0.00 0.00 0.00 33 1021.7
20260906144608 77 33 0.0 0.0 0.00 0.00 0.00 35 1021.5
20260906144103 76 49 0.0 0.9 0.00 0.00 0.00 33 1021.6
20260906143558 76 30 0.9 0.9 0.00 0.00 0.00 33 1021.5
20260906143055 75 35 0.0 0.9 0.00 0.00 0.00 33 1021.8
20260906142553 76 34 0.0 0.0 0.00 0.00 0.00 34 1021.6
20260906142049 76 75 0.0 0.9 0.00 0.00 0.00 35 1021.6
20260906141548 76 77 0.0 0.0 0.00 0.00 0.00 34 1021.5
20260906141044 73 43 0.0 0.0 0.00 0.00 0.00 35 1021.4
20260906140543 73 55 0.0 0.9 0.00 0.00 0.00 36 1021.2
20260906140037 73 86 0.9 0.9 0.00 0.00 0.00 36 1021.5
20260906135534 74 47 0.9 1.7 0.00 0.00 0.00 32 1021.4
20260906135030 73 66 0.9 1.7 0.00 0.00 0.00 33 1021.1
20260906134525 74 77 0.9 1.7 0.00 0.00 0.00 31 1021.2
20260906134020 74 37 0.9 1.7 0.00 0.00 0.00 31 1021.0
20260906133516 76 38 1.7 1.7 0.00 0.00 0.00 29 1021.1
20260906133011 76 321 4.3 5.2 0.00 0.00 0.00 29 1021.0
20260906132506 76 281 2.6 2.6 0.00 0.00 0.00 29 1020.7
20260906132002 75 256 1.7 2.6 0.00 0.00 0.00 30 1020.7
20260906131457 73 14 2.6 2.6 0.00 0.00 0.00 30 1020.9
20260906130952 73 5 2.6 2.6 0.00 0.00 0.00 30 1021.1
20260906130451 72 18 2.6 2.6 0.00 0.00 0.00 31 1020.8
20260906125946 72 15 2.6 2.6 0.00 0.00 0.00 31 1020.7
20260906125444 72 88 0.9 1.7 0.00 0.00 0.00 31 1020.5
20260906124943 72 356 1.7 2.6 0.00 0.00 0.00 31 1020.8
20260906124439 72 22 1.7 1.7 0.00 0.00 0.00 31 1020.8
20260906123939 72 321 2.6 4.3 0.00 0.00 0.00 31 1020.9
20260906123433 72 11 0.9 0.9 0.00 0.00 0.00 32 1020.7
20260906122933 71 298 1.7 2.6 0.00 0.00 0.00 34 1020.8
20260906122428 70 309 2.6 2.6 0.00 0.00 0.00 35 1021.0
20260906121925 70 309 0.9 0.9 0.00 0.00 0.00 37 1020.7
20260906121421 69 292 1.7 1.7 0.00 0.00 0.00 37 1020.7
20260906120917 70 340 0.0 0.9 0.00 0.00 0.00 37 1020.4
20260906120412 70 13 0.0 0.0 0.00 0.00 0.00 37 1020.7
20260906115908 71 337 0.0 0.0 0.00 0.00 0.00 38 1020.4
20260906115404 71 300 0.0 0.9 0.00 0.00 0.00 37 1020.7
20260906114903 71 340 0.9 0.9 0.00 0.00 0.00 36 1020.7
20260906114358 71 325 0.9 0.9 0.00 0.00 0.00 37 1020.4
20260906113854 71 317 0.0 0.0 0.00 0.00 0.00 37 1020.9
20260906113352 71 76 0.0 0.0 0.00 0.00 0.00 37 1020.7
20260906112848 71 12 0.0 0.0 0.00 0.00 0.00 37 1020.8
20260906112343 72 4 0.0 0.0 0.00 0.00 0.00 36 1020.8
20260906111837 72 309 0.9 0.9 0.00 0.00 0.00 36 1020.4
20260906111332 72 314 0.0 0.0 0.00 0.00 0.00 37 1020.3
20260906110827 72 275 0.0 0.0 0.00 0.00 0.00 38 1020.7
20260906110323 72 63 0.0 0.0 0.00 0.00 0.00 36 1020.7
20260906105821 73 85 0.0 0.0 0.00 0.00 0.00 35 1020.5
20260906105317 74 80 0.0 0.0 0.00 0.00 0.00 34 1020.7
20260906104813 74 67 0.0 0.0 0.00 0.00 0.00 34 1020.5
20260906104311 75 31 0.9 0.9 0.00 0.00 0.00 33 1020.9
20260906103809 75 60 1.7 2.6 0.00 0.00 0.00 33 1020.4
20260906103303 75 341 2.6 2.6 0.00 0.00 0.00 33 1020.4
20260906102759 75 36 2.6 2.6 0.00 0.00 0.00 33 1020.5
20260906102258 75 111 0.0 0.0 0.00 0.00 0.00 33 1020.2
20260906101754 75 34 0.9 1.7 0.00 0.00 0.00 32 1020.3
20260906101248 75 138 0.0 0.9 0.00 0.00 0.00 33 1020.5
20260906100743 75 320 2.6 5.2 0.00 0.00 0.00 33 1020.4
20260906100243 74 291 2.6 2.6 0.00 0.00 0.00 33 1020.2
20260906095738 74 271 2.6 2.6 0.00 0.00 0.00 34 1020.4
20260906095233 74 324 1.7 1.7 0.00 0.00 0.00 34 1020.3
20260906094732 74 266 0.9 0.9 0.00 0.00 0.00 34 1020.2
20260906094222 74 270 2.6 2.6 0.00 0.00 0.00 34 1020.4
20260906093719 75 234 1.7 1.7 0.00 0.00 0.00 34 1020.3
20260906093214 75 292 0.9 1.7 0.00 0.00 0.00 33 1020.3
20260906092708 75 280 2.6 2.6 0.00 0.00 0.00 33 1020.2
20260906092202 75 296 1.7 1.7 0.00 0.00 0.00 33 1019.8
20260906091659 75 286 2.6 2.6 0.00 0.00 0.00 33 1020.0
20260906091155 75 299 2.6 4.3 0.00 0.00 0.00 33 1019.8
20260906090651 76 277 1.7 1.7 0.00 0.00 0.00 33 1020.2
20260906090149 76 268 2.6 2.6 0.00 0.00 0.00 32 1020.1
20260906085648 77 282 2.6 4.3 0.00 0.00 0.00 31 1019.8
20260906085143 77 341 2.6 2.6 0.00 0.00 0.00 31 1020.0
20260906084637 77 309 1.7 1.7 0.00 0.00 0.00 31 1019.8
20260906084136 77 333 2.6 2.6 0.00 0.00 0.00 31 1020.2
20260906083632 77 306 1.7 1.7 0.00 0.00 0.00 31 1019.7
20260906083127 77 321 2.6 2.6 0.00 0.00 0.00 31 1020.0
20260906082623 77 320 0.9 0.9 0.00 0.00 0.00 32 1020.2
20260906082118 77 303 0.9 1.7 0.00 0.00 0.00 32 1020.2
20260906081614 78 316 1.7 1.7 0.00 0.00 0.00 31 1020.2
20260906081109 78 319 3.5 4.3 0.00 0.00 0.00 31 1020.4
20260906080605 78 308 0.9 0.9 0.00 0.00 0.00 31 1020.3
20260906075555 77 269 1.7 1.7 0.00 0.00 0.00 32 1020.2
20260906075050 77 348 1.7 1.7 0.00 0.00 0.00 32 1020.3
20260906074545 76 298 1.7 1.7 0.00 0.00 0.00 33 1020.4
20260906074043 75 289 0.9 1.7 0.00 0.00 0.00 33 1020.5
20260906073538 75 266 1.7 2.6 0.00 0.00 0.00 33 1020.5
20260906073035 74 277 0.9 1.7 0.00 0.00 0.00 34 1020.8
20260906072529 74 282 0.9 1.7 0.00 0.00 0.00 34 1020.8
20260906072025 74 305 0.9 0.9 0.00 0.00 0.00 34 1020.4
20260906071521 74 321 0.0 0.9 0.00 0.00 0.00 34 1020.4
20260906071016 74 225 0.9 0.9 0.00 0.00 0.00 34 1020.5
20260906070513 75 213 0.0 0.9 0.00 0.00 0.00 34 1020.3
20260906070008 75 337 0.0 0.0 0.00 0.00 0.00 33 1020.5
20260906065502 76 284 0.9 0.9 0.00 0.00 0.00 33 1020.5
20260906064957 76 342 0.9 0.9 0.00 0.00 0.00 33 1020.5
20260906064453 76 309 2.6 2.6 0.00 0.00 0.00 33 1020.7
20260906063948 76 275 0.9 0.9 0.00 0.00 0.00 33 1020.8
20260906063443 77 108 0.0 0.0 0.00 0.00 0.00 34 1020.9
20260906062938 78 79 0.0 0.0 0.00 0.00 0.00 32 1020.4
20260906062433 78 47 0.9 0.9 0.00 0.00 0.00 31 1020.4
20260906061928 77 280 0.9 1.7 0.00 0.00 0.00 31 1020.5
20260906061424 78 129 0.0 0.9 0.00 0.00 0.00 32 1020.4
20260906060918 78 71 1.7 1.7 0.00 0.00 0.00 31 1020.4
20260906060415 78 93 1.7 1.7 0.00 0.00 0.00 31 1020.2
20260906055911 78 228 0.9 0.9 0.00 0.00 0.00 32 1020.4
20260906055407 77 155 3.5 4.3 0.00 0.00 0.00 32 1020.4
20260906054902 78 302 0.0 0.0 0.00 0.00 0.00 32 1020.4
20260906054357 78 75 0.0 0.9 0.00 0.00 0.00 32 1020.3
20260906053853 79 139 1.7 1.7 0.00 0.00 0.00 31 1019.8
20260906053349 79 114 0.9 0.9 0.00 0.00 0.00 30 1020.1
20260906052844 79 138 1.7 1.7 0.00 0.00 0.00 31 1020.2
20260906052341 80 252 0.9 0.9 0.00 0.00 0.00 30 1020.0
20260906051837 80 254 0.9 0.9 0.00 0.00 0.00 29 1019.8
20260906051337 81 223 0.0 0.9 0.00 0.00 0.00 29 1020.1
20260906050833 81 18 2.6 4.3 0.00 0.00 0.00 28 1020.1
20260906050327 81 260 4.3 7.0 0.00 0.00 0.00 28 1019.8
20260906045826 81 249 4.3 5.2 0.00 0.00 0.00 29 1020.0
20260906045321 81 248 5.2 7.0 0.00 0.00 0.00 29 1019.5
20260906044817 81 302 2.6 6.1 0.00 0.00 0.00 29 1019.6
20260906044311 81 262 4.3 7.0 0.00 0.00 0.00 29 1019.5
20260906043807 81 286 4.3 7.0 0.00 0.00 0.00 29 1019.5
20260906043303 81 256 2.6 2.6 0.00 0.00 0.00 29 1019.7
20260906042757 80 323 1.7 2.6 0.00 0.00 0.00 30 1019.6
20260906042256 81 320 1.7 1.7 0.00 0.00 0.00 30 1019.6
20260906041752 82 277 2.6 5.2 0.00 0.00 0.00 29 1019.6
20260906041247 82 261 2.6 2.6 0.00 0.00 0.00 29 1019.4
20260906040742 81 168 5.2 7.8 0.00 0.00 0.00 29 1019.7
20260906040237 82 247 1.7 2.6 0.00 0.00 0.00 29 1019.7
20260906035733 83 277 2.6 4.3 0.00 0.00 0.00 28 1019.7
20260906035229 83 291 4.3 7.0 0.00 0.00 0.00 28 1019.6
20260906034728 82 241 4.3 6.1 0.00 0.00 0.00 28 1019.7
20260906034223 82 299 4.3 5.2 0.00 0.00 0.00 28 1019.8
20260906033719 82 327 2.6 4.3 0.00 0.00 0.00 28 1019.7
20260906033218 83 310 2.6 4.3 0.00 0.00 0.00 28 1019.6
20260906032716 83 322 2.6 4.3 0.00 0.00 0.00 28 1019.7
20260906032215 83 301 4.3 5.2 0.00 0.00 0.00 28 1019.5
20260906031710 83 341 2.6 4.3 0.00 0.00 0.00 28 1019.4
20260906031206 83 305 3.5 5.2 0.00 0.00 0.00 28 1019.4
20260906030705 83 318 2.6 6.1 0.00 0.00 0.00 28 1019.1
20260906030200 83 230 4.3 6.1 0.00 0.00 0.00 28 1019.1
20260906025700 84 307 4.3 7.8 0.00 0.00 0.00 28 1018.9
20260906025154 84 314 4.3 6.1 0.00 0.00 0.00 28 1019.1
20260906024648 84 275 4.3 7.0 0.00 0.00 0.00 28 1018.6
20260906024147 84 319 4.3 6.1 0.00 0.00 0.00 28 1019.1
20260906023644 84 291 2.6 2.6 0.00 0.00 0.00 28 1019.0
20260906023143 84 289 2.6 4.3 0.00 0.00 0.00 28 1019.0
20260906022638 84 270 4.3 6.1 0.00 0.00 0.00 28 1018.9
20260906022134 84 319 2.6 4.3 0.00 0.00 0.00 30 1018.4
20260906021630 83 345 0.9 0.9 0.00 0.00 0.00 31 1018.7
20260906021128 84 293 0.9 0.9 0.00 0.00 0.00 32 1018.8
20260906020623 84 0 0.0 0.0 0.00 0.00 0.00 31 1018.4
20260906020118 84 301 0.0 0.9 0.00 0.00 0.00 31 1018.8
20260906015612 85 13 0.0 0.0 0.00 0.00 0.00 31 1018.4
20260906015111 85 330 0.0 0.0 0.00 0.00 0.00 31 1018.2
20260906014606 86 274 0.0 0.0 0.00 0.00 0.00 30 1018.6
20260906014102 86 255 0.0 0.0 0.00 0.00 0.00 30 1018.3
20260906013557 86 262 0.0 0.9 0.00 0.00 0.00 30 1018.4
20260906013053 87 237 0.9 0.9 0.00 0.00 0.00 29 1018.4
20260906012548 87 267 0.9 0.9 0.00 0.00 0.00 29 1018.4
20260906012047 87 294 0.9 1.7 0.00 0.00 0.00 29 1018.6
20260906011544 87 278 0.9 0.9 0.00 0.00 0.00 29 1018.6
20260906011043 87 233 0.9 0.9 0.00 0.00 0.00 29 1018.7
20260906010538 88 286 1.7 1.7 0.00 0.00 0.00 28 1018.2
20260906010035 88 273 1.7 1.7 0.00 0.00 0.00 28 1018.6
20260906005534 89 276 1.7 1.7 0.00 0.00 0.00 27 1018.4
20260906005032 89 248 0.9 0.9 0.00 0.00 0.00 27 1018.4
20260906004526 89 357 1.7 1.7 0.00 0.00 0.00 27 1018.2
20260906004021 89 341 3.5 4.3 0.00 0.00 0.00 27 1018.6
20260906003516 89 8 2.6 4.3 0.00 0.00 0.00 27 1018.4
20260906003012 91 298 0.9 0.9 0.00 0.00 0.00 26 1018.4
20260906002507 91 38 0.9 1.7 0.00 0.00 0.00 26 1018.6
20260906002002 91 67 0.0 0.0 0.00 0.00 0.00 26 1018.6
20260906001457 91 339 1.7 2.6 0.00 0.00 0.00 26 1018.3
20260906000952 91 196 1.7 1.7 0.00 0.00 0.00 26 1018.4
20260906000448 92 282 0.9 0.9 0.00 0.00 0.00 26 1018.6
20260905235942 93 338 1.7 2.6 0.00 0.00 0.00 25 1018.8
20260905235442 93 230 1.7 2.6 0.00 0.00 0.00 25 1018.4
20260905234937 92 240 0.9 0.9 0.00 0.00 0.00 26 1018.4